{"data":{"norad_id":56129,"intl_designator":"2023-046AP","name":"STARLINK-6121","alt_names":[],"object_type":"PAYLOAD","status":"ACTIVE","operator":null,"country":"US","launch_date":"2023-03-29","launch_site_code":"AFETR","launch_vehicle":null,"mission":null,"orbit_class":"UNKNOWN","rcs_meters":null,"size_class":null,"mass_kg":null,"dimensions":null,"purposes":["comms"],"wikipedia_slug":null,"has_3d_model":false,"image_url":null,"decayed_at":null,"tle_current":{"epoch":"2026-09-19T21:31:02.110080Z","epoch_age_seconds":160920,"freshness":"FRESH","line1":"1 56129U 23046AP  26262.89655220  .00000835  00000+0  39870-4 0  9999","line2":"2 56129  43.0016  78.9818 0001369 261.2938  98.7758 15.27578387192492","mean_motion":15.27578387,"eccentricity":0.0001369,"inclination_deg":43.0016,"raan_deg":78.9818,"arg_perigee_deg":261.2938,"mean_anomaly_deg":98.7758,"bstar":3.987e-5,"rev_number":19249,"period_min":94.266848251762,"perigee_km":482.11462890841,"apogee_km":483.99322298394,"semimajor_km":6861.1909259462,"source":"CELESTRAK","updated_at":"2026-09-21T09:00:33.387684Z"}}}